Flag for U.S.A. Weather past 2 weeks in Daly City, California, U.S.A.

Now
68 °F

Overcast.


Feels Like: 68 °F
Forecast: 62 / 69 °F
Wind: 5 mph from Southwest

Location: San Francisco International Airport

Current Time: Sep 21, 2014 at 11:14:42 AM

Latest Report: Sep 21, 2014 at 10:56 AM


Visibility: 10 mi

Pressure: 30.02 "Hg

Humidity: 76%

Dew point: 60 °F

Location of Daly CityLocation

Historic Weather in Daly City — Graph

°F

Daly City temperature yesterday

Maximum temperature yesterday: 75 °F (at 1:56 PM)
Minimum temperature yesterday: 64 °F (at 12:56 AM)
Average temperature yesterday: 68 °F

Past Weeks' High & Low Weather Summary

 TemperatureHumidityPressure
High82 °F (Sep 10, 2:56 PM)96% (Sep 10, 7:56 AM)30.01 "Hg (Sep 10, 7:56 AM)
Low56 °F (Sep 10, 4:56 AM)41% (Sep 17, 2:56 PM)29.74 "Hg (Sep 17, 6:56 PM)
Average66 °F77%29.87 "Hg
* Reported Sep 6 9:56 AM — Sep 21 9:56 AM, Daly City, Weather by CustomWeather, © 2014

Note: Actual official high and low records may vary slightly from our data, if they occured in-between our weather recording intervals... More about our weather records

Advertising

Daly City weather history for previous 24 hours

 ConditionsComfort  
Time TempWeatherWind HumidityBarometerVisibility
9:56 AM
Sep 21
67 °FMostly cloudy.8 mph79%30.01 "Hg10 mi
8:56 AM67 °FMostly cloudy.8 mph79%30.00 "Hg10 mi
7:56 AM66 °FMostly cloudy.6 mph81%29.99 "Hg10 mi
6:56 AM66 °FMostly cloudy.7 mph81%29.97 "Hg10 mi
5:56 AM66 °FOvercast.5 mph78%29.96 "Hg10 mi
4:56 AM65 °FOvercast.8 mph81%29.96 "Hg10 mi
3:56 AM65 °FOvercast.10 mph81%29.95 "Hg10 mi
2:56 AM66 °FOvercast.7 mph81%29.96 "Hg10 mi
1:56 AM66 °FOvercast.7 mph78%29.94 "Hg10 mi
12:56 AM65 °FPassing clouds.13 mph81%29.94 "Hg10 mi
11:56 PM
Sep 20
65 °FPassing clouds.No wind81%29.95 "Hg10 mi
10:56 PM66 °FPassing clouds.12 mph78%29.95 "Hg10 mi
9:56 PM66 °FPassing clouds.9 mph78%29.92 "Hg10 mi
8:56 PM66 °FPassing clouds.8 mph78%29.94 "Hg10 mi
7:56 PM66 °FScattered clouds.13 mph78%29.92 "Hg10 mi
6:56 PM67 °FScattered clouds.10 mph76%29.91 "Hg10 mi
5:56 PM70 °FScattered clouds.14 mph68%29.90 "Hg10 mi
4:56 PM71 °FPartly sunny.17 mph68%29.89 "Hg10 mi
3:56 PM73 °FScattered clouds.18 mph66%29.89 "Hg10 mi
2:56 PM75 °FScattered clouds.18 mph62%29.90 "Hg10 mi
1:56 PM75 °FPassing clouds.16 mph64%29.91 "Hg10 mi
12:56 PM74 °FPassing clouds.9 mph67%29.93 "Hg10 mi
11:56 AM72 °FPassing clouds.7 mph73%29.94 "Hg10 mi
Weather by CustomWeather, © 2014

See weather overviewHow to use our weather pages